Location: Bukowiec
(51.6830°N, 19.6670°E)
Time: 00:49:31
(UTC+01:00)

ISS - Visible Passes

Search period start: 26 January 2020 00:00
Search period end: 05 February 2020 00:00
Orbit: 416 x 423 km, 51.6° (Epoch: 26 January)

Date Brightness Start Highest point End Pass type
(mag) Time Alt. Az. Time Alt. Az. Time Alt. Az.
26 Jan -2.3 16:52:37 10° SSW 16:55:32 27° SSE 16:58:28 10° E visible
26 Jan -3.8 18:28:40 10° WSW 18:31:57 75° SSW 18:31:57 75° SSW visible
27 Jan -3.6 17:41:14 10° WSW 17:44:35 63° SSE 17:46:24 24° E visible
27 Jan -1.3 19:17:58 10° W 19:19:22 23° W 19:19:22 23° W visible
28 Jan -3.1 16:53:49 10° SW 16:57:06 49° SSE 17:00:24 10° E visible
28 Jan -3.8 18:30:26 10° W 18:33:48 87° WNW 18:33:48 87° WNW visible
29 Jan -3.8 17:42:54 10° W 17:46:18 86° S 17:48:13 24° E visible
29 Jan -1.3 19:19:43 10° W 19:21:11 23° W 19:21:11 23° W visible
30 Jan -3.9 18:32:11 10° W 18:35:34 86° SSW 18:35:36 85° SSE visible
31 Jan -3.8 17:44:37 10° W 17:48:01 89° NNE 17:50:03 22° E visible
31 Jan -1.4 19:21:28 10° W 19:23:01 24° W 19:23:01 24° W visible
01 Feb -3.6 18:33:52 10° W 18:37:14 62° SSW 18:37:29 59° S visible
02 Feb -3.7 17:46:17 10° W 17:49:41 76° SSW 17:52:00 19° ESE visible
02 Feb -1.3 19:23:17 10° W 19:24:58 21° WSW 19:24:58 21° WSW visible
03 Feb -2.5 18:35:35 10° W 18:38:44 36° SSW 18:39:35 30° S visible
04 Feb -2.9 17:47:55 10° W 17:51:13 48° SSW 17:54:17 11° SE visible
04 Feb -0.9 19:25:43 10° WSW 19:27:16 13° SW 19:27:16 13° SW visible
